Regional Weather Roundup
Issued by NWS Memphis, TN

Home | Current Version | Previous Version | Text Only | Print | Product List | Glossary On
Versions: 1 2 3 4 5 6 7 8 9 10 11 12 13 14 15 16 17 18 19 20 21 22 23 24 25 26 27 28 29 30 31 32 33 34 35 36 37 38 39 40 41 42 43 44 45 46 47 48 49 50
000
ASUS44 KMEG 301810
RWRMEG
MEMPHIS CWA HOURLY WEATHER ROUNDUP
NATIONAL WEATHER SERVICE MEMPHIS TN
100 PM CDT THU JUL 30 2015

...WEST TENNESSEE...

CITY           SKY/WX    TMP DP  RH WIND       PRES   REMARKS
MEMPHIS INTL   MOSUNNY   89  65  44 N13G20    30.12S HX  91
6HR MIN TEMP:  81; 6HR MAX TEMP:  90;

NWS MEMPHIS      N/A     87 N/A N/A MISG        N/A
JACKSON        SUNNY     90  60  36 NE10      30.13S
6HR MIN TEMP:  78; 6HR MAX TEMP:  90;

DYERSBURG        N/A    N/A N/A N/A MISG        N/A
PARIS          SUNNY     82  63  51 NE9       30.15S


...EASTERN ARKANSAS...

CITY           SKY/WX    TMP DP  RH WIND       PRES   REMARKS
JONESBORO      SUNNY     84  66  54 NE9       30.15F
6HR MIN TEMP:  75; 6HR MAX TEMP:  84;

WEST MEMPHIS   SUNNY     88  64  44 NE10      30.11F
6HR MIN TEMP:  77; 6HR MAX TEMP:  88; 6HR PCP: TRACE;

BATESVILLE     SUNNY     88  61  40 E12       30.16F
6HR MIN TEMP:  75; 6HR MAX TEMP:  88;

NEWPORT        SUNNY     85  66  52 NE12      30.16F
6HR MIN TEMP:  75; 6HR MAX TEMP:  85;

WALNUT RIDGE   SUNNY     86  63  45 N13       30.16F
6HR MIN TEMP:  73; 6HR MAX TEMP:  86;

BLYTHEVILLE    SUNNY     86  66  51 NE13      30.14F
6HR MIN TEMP:  73; 6HR MAX TEMP:  86;

SEARCY         SUNNY     88  67  49 E10       30.16F HX  91
6HR MIN TEMP:  78; 6HR MAX TEMP:  88;

STUTTGART      SUNNY     88  68  51 N14       30.12F HX  91
6HR MIN TEMP:  79; 6HR MAX TEMP:  88;

PINE BLUFF     MOSUNNY   91  74  57 NE10      30.11F HX 100
6HR MIN TEMP:  80; 6HR MAX TEMP:  91; 6HR PCP: TRACE;

MONTICELLO     MOSUNNY   93  78  61 NE12G20   30.09S HX 108
6HR MIN TEMP:  81; 6HR MAX TEMP:  94;



...NORTH MISSISSIPPI...

CITY           SKY/WX    TMP DP  RH WIND       PRES   REMARKS
TUPELO         SUNNY     89  73  59 N13       30.07S HX  97
6HR MIN TEMP:  76; 6HR MAX TEMP:  90;

OLIVE BRANCH   SUNNY     88  63  42 NE12      30.12F
TUNICA         SUNNY     88  70  55 N9G16     30.11S HX  92
CLARKSDALE     SUNNY     91  77  62 N14       30.10S HX 105
CORINTH        SUNNY     88  64  45 N9        30.09F
GREENWOOD      MOSUNNY   92  76  59 N8        30.05F HX 104
6HR MIN TEMP:  76; 6HR MAX TEMP:  94;

COLUMBUS       MOSUNNY   91  78  64 N14       30.03F HX 106
6HR MIN TEMP:  76; 6HR MAX TEMP:  91;

STARKVILLE     FAIR      90  77  66 N7        30.05S HX 102
GOLDEN TRIANGL PTSUNNY   93  75  55 N12       30.03F HX 104


...SOUTHEAST MISSOURI...

CITY           SKY/WX    TMP DP  RH WIND       PRES   REMARKS
WEST PLAINS    SUNNY     84  59  42 VRB6      30.23F
6HR MIN TEMP:  67; 6HR MAX TEMP:  84;

POPLAR BLUFF   SUNNY     86  62  44 NE10      30.16S
6HR MIN TEMP:  70; 6HR MAX TEMP:  86;



...NORTHWEST ALABAMA...

CITY           SKY/WX    TMP DP  RH WIND       PRES   REMARKS
MUSCLE SHOALS  PTSUNNY   88  73  61 VRB6      30.08F HX  95
6HR MIN TEMP:  78; 6HR MAX TEMP:  89;



...MIDDLE TENNESSEE...

CITY           SKY/WX    TMP DP  RH WIND       PRES   REMARKS
NASHVILLE      MOSUNNY   88  60  38 N8        30.10F
6HR MIN TEMP:  78; 6HR MAX TEMP:  88;

CLARKSVILLE    SUNNY     84  61  45 N9        30.12F
6HR MIN TEMP:  72; 6HR MAX TEMP:  85;

COLUMBIA       SUNNY     88  68  51 VRB5      30.09F HX  91


...WESTERN KENTUCKY...

CITY           SKY/WX    TMP DP  RH WIND       PRES   REMARKS
PADUCAH        SUNNY     86  63  45 NE12      30.14S
6HR MIN TEMP:  71; 6HR MAX TEMP:  86;

FORT CAMPBELL  SUNNY     84  63  48 N13       30.12F
6HR MIN TEMP:  70; 6HR MAX TEMP:  84;



...CENTRAL ARKANSAS...

CITY           SKY/WX    TMP DP  RH WIND       PRES   REMARKS
LITTLE ROCK    MOSUNNY   90  68  48 E10       30.13F HX  94
6HR MIN TEMP:  81; 6HR MAX TEMP:  91;



SKY/WX REPORTED AS FAIR MEANS FEW OR NO CLOUDS BELOW
12 THOUSAND FEET.



USA.gov is the U.S. government's official web portal to all federal, state and local government web resources and services.